| time (UTC) | temp F | wind direction | speed MPH | gust MPH | rain 1hr in | rain 24hr in | rain mn in | humidity % | barometer mb |
| 20260905203113 | 67 | 235 | 10.0 | 14.0 | 0.00 | 0.08 | 0.08 | 56 | 1022.7 |
| 20260905202113 | 66 | 248 | 11.0 | 13.0 | 0.00 | 0.08 | 0.08 | 56 | 1022.6 |
| 20260905201113 | 66 | 268 | 9.0 | 12.0 | 0.00 | 0.08 | 0.08 | 55 | 1022.6 |
| 20260905200113 | 66 | 241 | 8.0 | 11.0 | 0.00 | 0.08 | 0.08 | 55 | 1022.5 |
| 20260905195113 | 66 | 261 | 7.0 | 12.0 | 0.00 | 0.08 | 0.08 | 55 | 1022.3 |
| 20260905194113 | 66 | 246 | 7.0 | 10.0 | 0.00 | 0.08 | 0.08 | 54 | 1022.4 |
| 20260905193113 | 65 | 244 | 6.0 | 10.0 | 0.00 | 0.08 | 0.08 | 54 | 1022.3 |
| 20260905192113 | 65 | 255 | 7.0 | 9.0 | 0.00 | 0.08 | 0.08 | 52 | 1022.2 |
| 20260905191113 | 66 | 244 | 7.0 | 9.0 | 0.00 | 0.08 | 0.08 | 51 | 1022.2 |
| 20260905190113 | 66 | 240 | 6.0 | 9.0 | 0.00 | 0.08 | 0.08 | 48 | 1022.1 |
| 20260905185113 | 67 | 239 | 7.0 | 9.0 | 0.00 | 0.08 | 0.08 | 47 | 1022.0 |
| 20260905184113 | 67 | 242 | 6.0 | 8.0 | 0.00 | 0.08 | 0.08 | 45 | 1021.9 |
| 20260905183113 | 68 | 234 | 6.0 | 8.0 | 0.00 | 0.08 | 0.08 | 44 | 1021.8 |
| 20260905182113 | 69 | 239 | 5.0 | 8.0 | 0.00 | 0.08 | 0.08 | 43 | 1021.7 |
| 20260905181113 | 70 | 265 | 6.0 | 8.0 | 0.00 | 0.08 | 0.08 | 41 | 1021.7 |
| 20260905180113 | 70 | 274 | 5.0 | 8.0 | 0.00 | 0.08 | 0.08 | 40 | 1021.5 |
| 20260905175113 | 71 | 290 | 6.0 | 10.0 | 0.00 | 0.08 | 0.08 | 39 | 1021.4 |
| 20260905174113 | 72 | 277 | 6.0 | 9.0 | 0.00 | 0.08 | 0.08 | 38 | 1021.4 |
| 20260905173113 | 73 | 261 | 7.0 | 9.0 | 0.00 | 0.08 | 0.08 | 37 | 1021.3 |
| 20260905172113 | 73 | 274 | 6.0 | 10.0 | 0.00 | 0.08 | 0.08 | 35 | 1021.1 |
| 20260905171113 | 74 | 284 | 8.0 | 11.0 | 0.00 | 0.08 | 0.08 | 35 | 1021.2 |
| 20260905170113 | 75 | 273 | 10.0 | 16.0 | 0.00 | 0.08 | 0.08 | 34 | 1021.2 |
| 20260905165112 | 75 | 289 | 12.0 | 16.0 | 0.00 | 0.08 | 0.08 | 34 | 1021.0 |
| 20260905164112 | 76 | 285 | 8.0 | 14.0 | 0.00 | 0.08 | 0.08 | 34 | 1020.9 |
| 20260905163112 | 76 | 317 | 14.0 | 19.0 | 0.00 | 0.08 | 0.08 | 32 | 1020.8 |
| 20260905162112 | 77 | 306 | 14.0 | 21.0 | 0.00 | 0.08 | 0.08 | 31 | 1020.8 |
| 20260905161112 | 77 | 299 | 11.0 | 15.0 | 0.00 | 0.08 | 0.08 | 31 | 1020.8 |
| 20260905160112 | 77 | 271 | 17.0 | 22.0 | 0.00 | 0.08 | 0.08 | 30 | 1020.7 |
| 20260905155112 | 77 | 308 | 11.0 | 15.0 | 0.00 | 0.08 | 0.08 | 31 | 1020.7 |
| 20260905154112 | 77 | 265 | 9.0 | 17.0 | 0.00 | 0.08 | 0.08 | 31 | 1020.5 |
| 20260905153112 | 78 | 297 | 10.0 | 21.0 | 0.00 | 0.08 | 0.08 | 30 | 1020.5 |
| 20260905152112 | 78 | 306 | 13.0 | 19.0 | 0.00 | 0.08 | 0.08 | 32 | 1020.3 |
| 20260905151112 | 78 | 286 | 19.0 | 26.0 | 0.00 | 0.08 | 0.08 | 30 | 1020.3 |
| 20260905150112 | 78 | 248 | 16.0 | 25.0 | 0.00 | 0.08 | 0.08 | 31 | 1020.4 |
| 20260905145112 | 79 | 293 | 14.0 | 23.0 | 0.00 | 0.08 | 0.08 | 31 | 1020.4 |
| 20260905144112 | 79 | 254 | 8.0 | 21.0 | 0.00 | 0.08 | 0.08 | 32 | 1020.3 |
| 20260905143112 | 79 | 265 | 7.0 | 19.0 | 0.00 | 0.08 | 0.08 | 32 | 1020.3 |
| 20260905142112 | 79 | 278 | 10.0 | 17.0 | 0.00 | 0.08 | 0.08 | 33 | 1020.3 |
| 20260905141112 | 78 | 272 | 13.0 | 19.0 | 0.00 | 0.08 | 0.08 | 35 | 1020.3 |
| 20260905140112 | 78 | 231 | 14.0 | 18.0 | 0.00 | 0.08 | 0.08 | 42 | 1020.4 |
| 20260905135112 | 78 | 254 | 12.0 | 18.0 | 0.00 | 0.08 | 0.08 | 42 | 1020.3 |
| 20260905134112 | 78 | 238 | 13.0 | 21.0 | 0.00 | 0.08 | 0.08 | 43 | 1020.5 |
| 20260905133112 | 77 | 261 | 10.0 | 18.0 | 0.00 | 0.08 | 0.08 | 44 | 1020.6 |
| 20260905132112 | 76 | 250 | 12.0 | 18.0 | 0.00 | 0.08 | 0.08 | 47 | 1020.4 |
| 20260905131112 | 76 | 248 | 16.0 | 23.0 | 0.00 | 0.08 | 0.08 | 47 | 1020.6 |
| 20260905130112 | 76 | 252 | 8.0 | 15.0 | 0.00 | 0.08 | 0.08 | 48 | 1020.6 |
| 20260905125112 | 76 | 253 | 12.0 | 18.0 | 0.00 | 0.08 | 0.08 | 48 | 1020.6 |
| 20260905124112 | 76 | 227 | 11.0 | 20.0 | 0.00 | 0.08 | 0.08 | 46 | 1020.6 |
| 20260905123112 | 77 | 232 | 6.0 | 14.0 | 0.00 | 0.08 | 0.08 | 47 | 1020.6 |
| 20260905122112 | 76 | 235 | 9.0 | 19.0 | 0.01 | 0.08 | 0.08 | 49 | 1020.7 |
| 20260905121112 | 76 | 275 | 8.0 | 16.0 | 0.01 | 0.08 | 0.08 | 50 | 1020.8 |
| 20260905120112 | 75 | 257 | 11.0 | 18.0 | 0.01 | 0.08 | 0.08 | 50 | 1020.7 |
| 20260905115112 | 74 | 303 | 11.0 | 19.0 | 0.01 | 0.08 | 0.08 | 51 | 1020.9 |
| 20260905114112 | 74 | 257 | 8.0 | 18.0 | 0.01 | 0.08 | 0.08 | 52 | 1020.9 |
| 20260905113112 | 74 | 292 | 12.0 | 19.0 | 0.01 | 0.08 | 0.08 | 53 | 1021.0 |
| 20260905112112 | 73 | 259 | 14.0 | 22.0 | 0.00 | 0.07 | 0.07 | 55 | 1021.2 |
| 20260905111117 | 72 | 284 | 18.0 | 26.0 | 0.00 | 0.07 | 0.07 | 55 | 1021.4 |
| 20260905110111 | 71 | 292 | 15.0 | 21.0 | 0.00 | 0.07 | 0.07 | 58 | 1021.2 |
| 20260905105112 | 70 | 296 | 16.0 | 26.0 | 0.00 | 0.07 | 0.07 | 60 | 1021.2 |
| 20260905104112 | 69 | 270 | 11.0 | 19.0 | 0.00 | 0.07 | 0.07 | 61 | 1021.2 |
| 20260905103112 | 69 | 223 | 13.0 | 23.0 | 0.00 | 0.07 | 0.07 | 62 | 1021.4 |
| 20260905102111 | 68 | 275 | 11.0 | 18.0 | 0.00 | 0.07 | 0.07 | 64 | 1021.1 |
| 20260905101111 | 66 | 261 | 10.0 | 15.0 | 0.00 | 0.07 | 0.07 | 65 | 1021.1 |
| 20260905100112 | 65 | 268 | 8.0 | 22.0 | 0.00 | 0.07 | 0.07 | 67 | 1021.2 |
| 20260905095111 | 64 | 258 | 6.0 | 23.0 | 0.00 | 0.07 | 0.07 | 68 | 1021.3 |
| 20260905094111 | 63 | 277 | 12.0 | 18.0 | 0.00 | 0.07 | 0.07 | 70 | 1021.3 |
| 20260905093111 | 62 | 309 | 8.0 | 17.0 | 0.01 | 0.07 | 0.07 | 71 | 1021.4 |
| 20260905092111 | 62 | 278 | 8.0 | 12.0 | 0.02 | 0.07 | 0.07 | 70 | 1021.3 |
| 20260905091111 | 61 | 270 | 4.0 | 10.0 | 0.02 | 0.07 | 0.07 | 70 | 1021.2 |
| 20260905090111 | 61 | 284 | 6.0 | 8.0 | 0.02 | 0.07 | 0.07 | 70 | 1021.3 |
| 20260905085111 | 61 | 299 | 5.0 | 7.0 | 0.02 | 0.07 | 0.07 | 70 | 1021.4 |
| 20260905084111 | 61 | 296 | 3.0 | 8.0 | 0.02 | 0.07 | 0.07 | 70 | 1021.7 |
| 20260905083111 | 61 | 355 | 3.0 | 5.0 | 0.01 | 0.06 | 0.06 | 70 | 1021.7 |
| 20260905082111 | 60 | 254 | 3.0 | 9.0 | 0.00 | 0.06 | 0.06 | 69 | 1021.4 |
| 20260905081111 | 60 | 227 | 7.0 | 14.0 | 0.01 | 0.06 | 0.06 | 69 | 1021.6 |
| 20260905080111 | 60 | 227 | 9.0 | 12.0 | 0.03 | 0.06 | 0.06 | 69 | 1021.4 |
| 20260905075111 | 61 | 235 | 7.0 | 8.0 | 0.05 | 0.06 | 0.06 | 68 | 1021.4 |
| 20260905074111 | 61 | 225 | 6.0 | 10.0 | 0.06 | 0.06 | 0.06 | 68 | 1021.5 |
| 20260905073111 | 61 | 236 | 6.0 | 8.0 | 0.06 | 0.06 | 0.06 | 67 | 1021.5 |
| 20260905072111 | 62 | 238 | 4.0 | 5.0 | 0.06 | 0.06 | 0.06 | 66 | 1021.0 |
| 20260905071111 | 62 | 203 | 6.0 | 8.0 | 0.05 | 0.05 | 0.05 | 64 | 1021.1 |
| 20260905070111 | 63 | 220 | 6.0 | 8.0 | 0.02 | 0.02 | 0.02 | 62 | 1021.6 |
| 20260905065111 | 64 | 316 | 5.0 | 9.0 | 0.01 | 0.01 | 0.01 | 60 | 1021.0 |
| 20260905064111 | 64 | 296 | 7.0 | 14.0 | 0.00 | 0.00 | 0.00 | 57 | 1021.5 |
| 20260905063111 | 65 | 296 | 8.0 | 14.0 | 0.00 | 0.00 | 0.00 | 57 | 1021.1 |
| 20260905062111 | 65 | 311 | 9.0 | 16.0 | 0.00 | 0.00 | 0.00 | 56 | 1020.6 |
| 20260905061111 | 66 | 333 | 10.0 | 18.0 | 0.00 | 0.00 | 0.00 | 55 | 1020.3 |
| 20260905060111 | 67 | 317 | 11.0 | 17.0 | 0.00 | 0.00 | 0.00 | 52 | 1020.6 |
| 20260905055111 | 68 | 342 | 15.0 | 21.0 | 0.00 | 0.00 | 0.00 | 47 | 1020.2 |
| 20260905054111 | 68 | 321 | 9.0 | 17.0 | 0.00 | 0.00 | 0.00 | 47 | 1019.9 |
| 20260905053110 | 68 | 336 | 12.0 | 20.0 | 0.00 | 0.00 | 0.00 | 48 | 1019.1 |
| 20260905052111 | 68 | 9 | 15.0 | 23.0 | 0.00 | 0.00 | 0.00 | 48 | 1018.9 |
| 20260905051110 | 69 | 309 | 18.0 | 23.0 | 0.00 | 0.00 | 0.00 | 47 | 1018.5 |
| 20260905050110 | 69 | 360 | 16.0 | 25.0 | 0.00 | 0.00 | 0.00 | 47 | 1018.2 |
| 20260905045110 | 69 | 338 | 13.0 | 19.0 | 0.00 | 0.00 | 0.00 | 48 | 1018.6 |
| 20260905044110 | 69 | 321 | 13.0 | 18.0 | 0.00 | 0.00 | 0.00 | 49 | 1018.7 |
| 20260905043111 | 69 | 326 | 11.0 | 19.0 | 0.00 | 0.00 | 0.00 | 49 | 1018.5 |
| 20260905042110 | 69 | 296 | 9.0 | 12.0 | 0.00 | 0.00 | 0.00 | 49 | 1018.2 |
| 20260905041110 | 69 | 308 | 8.0 | 12.0 | 0.00 | 0.00 | 0.00 | 48 | 1017.8 |
| 20260905040110 | 70 | 310 | 9.0 | 16.0 | 0.00 | 0.00 | 0.00 | 47 | 1017.9 |
| 20260905035110 | 70 | 333 | 13.0 | 19.0 | 0.00 | 0.00 | 0.00 | 47 | 1017.8 |
| 20260905034110 | 70 | 338 | 12.0 | 19.0 | 0.00 | 0.00 | 0.00 | 47 | 1017.4 |
| 20260905033110 | 71 | 343 | 10.0 | 15.0 | 0.00 | 0.00 | 0.00 | 47 | 1016.8 |
| 20260905032110 | 71 | 331 | 12.0 | 16.0 | 0.00 | 0.00 | 0.00 | 48 | 1016.8 |
| 20260905031110 | 72 | 342 | 15.0 | 25.0 | 0.00 | 0.00 | 0.00 | 47 | 1016.4 |
| 20260905030110 | 73 | 334 | 19.0 | 24.0 | 0.00 | 0.00 | 0.00 | 47 | 1016.0 |
| 20260905025110 | 74 | 346 | 20.0 | 31.0 | 0.00 | 0.00 | 0.00 | 47 | 1015.5 |
| 20260905024110 | 74 | 327 | 19.0 | 27.0 | 0.00 | 0.00 | 0.00 | 47 | 1015.6 |
| 20260905023110 | 72 | 288 | 9.0 | 15.0 | 0.00 | 0.00 | 0.00 | 48 | 1015.3 |
| 20260905022110 | 71 | 296 | 7.0 | 15.0 | 0.00 | 0.00 | 0.00 | 52 | 1015.3 |
| 20260905021110 | 70 | 273 | 5.0 | 8.0 | 0.00 | 0.00 | 0.00 | 53 | 1014.6 |
| 20260905020110 | 69 | 233 | 5.0 | 11.0 | 0.00 | 0.00 | 0.00 | 54 | 1014.4 |
| 20260905015110 | 67 | 244 | 10.0 | 14.0 | 0.00 | 0.00 | 0.00 | 58 | 1014.6 |
| 20260905014110 | 66 | 259 | 1.0 | 5.0 | 0.00 | 0.00 | 0.00 | 60 | 1014.3 |
| 20260905013110 | 65 | 271 | 3.0 | 6.0 | 0.00 | 0.00 | 0.00 | 61 | 1014.3 |
| 20260905012110 | 65 | 279 | 0.0 | 2.0 | 0.00 | 0.00 | 0.00 | 62 | 1014.1 |
| 20260905011110 | 64 | 279 | 1.0 | 2.0 | 0.00 | 0.00 | 0.00 | 62 | 1014.1 |
| 20260905005110 | 64 | 186 | 0.0 | 3.0 | 0.00 | 0.00 | 0.00 | 63 | 1014.2 |
| 20260905004110 | 64 | 188 | 1.0 | 2.0 | 0.00 | 0.00 | 0.00 | 63 | 1014.1 |
| 20260905003110 | 64 | 200 | 0.0 | 0.0 | 0.00 | 0.00 | 0.00 | 63 | 1014.2 |
| 20260905002110 | 64 | 200 | 0.0 | 0.0 | 0.00 | 0.00 | 0.00 | 63 | 1014.1 |
| 20260905001110 | 64 | 200 | 0.0 | 0.0 | 0.00 | 0.00 | 0.00 | 63 | 1014.0 |
| 20260905000110 | 64 | 200 | 0.0 | 0.0 | 0.00 | 0.00 | 0.00 | 63 | 1014.0 |
| 20260904235109 | 64 | 200 | 0.0 | 0.0 | 0.00 | 0.00 | 0.00 | 63 | 1013.8 |
| 20260904234110 | 64 | 204 | 2.0 | 2.0 | 0.00 | 0.00 | 0.00 | 62 | 1013.8 |
| 20260904233110 | 64 | 205 | 1.0 | 2.0 | 0.00 | 0.00 | 0.00 | 62 | 1013.9 |
| 20260904232110 | 64 | 132 | 1.0 | 5.0 | 0.00 | 0.00 | 0.00 | 62 | 1013.8 |
| 20260904231109 | 64 | 132 | 5.0 | 7.0 | 0.00 | 0.00 | 0.00 | 62 | 1013.8 |
| 20260904230110 | 64 | 320 | 1.0 | 2.0 | 0.00 | 0.00 | 0.00 | 61 | 1013.5 |
| 20260904225110 | 64 | 333 | 4.0 | 4.0 | 0.00 | 0.00 | 0.00 | 61 | 1013.3 |
| 20260904224110 | 65 | 340 | 3.0 | 4.0 | 0.00 | 0.00 | 0.00 | 61 | 1013.6 |
| 20260904223109 | 65 | 341 | 0.0 | 0.0 | 0.00 | 0.00 | 0.00 | 60 | 1013.5 |
| 20260904222110 | 65 | 341 | 0.0 | 0.0 | 0.00 | 0.00 | 0.00 | 59 | 1013.5 |
| 20260904221109 | 66 | 341 | 0.0 | 0.0 | 0.00 | 0.00 | 0.00 | 59 | 1013.5 |
| 20260904220110 | 66 | 341 | 0.0 | 0.0 | 0.00 | 0.00 | 0.00 | 57 | 1013.5 |
| 20260904215109 | 67 | 341 | 0.0 | 0.0 | 0.00 | 0.00 | 0.00 | 57 | 1013.6 |
| 20260904214109 | 67 | 341 | 0.0 | 0.0 | 0.00 | 0.00 | 0.00 | 56 | 1013.6 |
| 20260904213109 | 68 | 341 | 0.0 | 0.0 | 0.00 | 0.00 | 0.00 | 55 | 1013.7 |
| 20260904212109 | 68 | 341 | 0.0 | 0.0 | 0.00 | 0.00 | 0.00 | 55 | 1013.4 |
| 20260904211109 | 69 | 341 | 0.0 | 0.0 | 0.00 | 0.00 | 0.00 | 53 | 1013.5 |
| 20260904210109 | 70 | 341 | 0.0 | 0.0 | 0.00 | 0.00 | 0.00 | 52 | 1013.4 |
| 20260904205109 | 70 | 341 | 0.0 | 0.0 | 0.00 | 0.00 | 0.00 | 51 | 1013.4 |
| 20260904204109 | 71 | 343 | 0.0 | 0.0 | 0.00 | 0.00 | 0.00 | 50 | 1013.3 |